カタログに戻る

GORIZONT 18

運用中通信GEO
NORAD 20107·PAYLOAD·🇷🇺 Russia

打ち上げ Jul 5, 1989 から Baikonur Cosmodrome

Loading…

TLE

最新Source: Space-Track

元期: Sep 14, 2026, 10:57 UTC

1 20107U 89052A   26257.45654963  .00000057  00000-0  00000-0 0  9990
2 20107  12.2971 333.8784 0036416 348.6556  49.8556  0.99400850135301

AllMySatでGORIZONT 18をリアルタイム追跡

Download on the App Store